Find Starlink 34356

NORAD ID: 64303 Int'l Des: 2025-123 Owner: SPXS Country: US Constellation: starlink operational
LEOCIRCULAR

Live Position

Loading 3D Globe...

About Starlink 34356

Description loading...

Upcoming Passes

Passes for default location (London). Set your location on the main map for personalized predictions.

Altitude History

Loading altitude history...

Two-Line Element Set

1 64303U 25123N 26104.41269046 .00003071 00000-0 26491-3 0 9990
2 64303 70.0002 104.2204 0003482 271.7006 88.3755 14.98346375 46972
Epoch: Apr 14, 2026 • Age: 13 hours

Current Status

Altitude 592.8 km
Velocity 7.56 km/s
Sub-Earth Point -61.56°S, 118.35°W
Launch Date Jun 8, 2025
Age 0.8 years
Type internet

Technical Details

Classification Payload
Mass 575.00 kg
Dry Mass 530.00 kg
Total Mass 575.00 kg
Length 0.30 m
Diameter 4.10 m
Span 29.00 m
Shape Box + pan
Manufacturer SPXS
Bus Type Starlink V2MO
Phase Status In Orbit
Owner/State SPXS/US

Most Searched